User: anonymous   Login
Location: Isola Pescaroli
(45.0500°N, 10.1667°E)
Time: 00:52:55
(UTC+00:00)
Language:

OBJECT-B - Orbit

View from above orbital plane
View from above orbital plane
View from above satellite
View from above satellite

Ground track
Ground track

The orbit data is extracted from the following two-line orbital elements,

1 40382U 15004B   21136.07911914 0.00006500  00000-0  11949-3 0    03
2 40382  96.9648 178.1758 0006518 223.6447 136.3552 15.49204452    07
Epoch (UTC): 16 May 2021 01:53:55
Eccentricity: 0.0006518
inclination: 96.9648°
perigee height: 414 km
apogee height: 423 km
right ascension of ascending node: 178.1758°
argument of perigee: 223.6447°
revolutions per day: 15.49204452
mean anomaly at epoch: 136.3552°
orbit number at epoch: 0

The dashed part of the orbit path shows where the satellite is in the earth's shadow,  

DLR